Location: Nairn
(57.5833°N, 3.8667°W)
Time: 21:43:13
(UTC+00:00)

Altair - Pass Details

Date: 10 October 2022
Orbit: 1501 x 1682 km, 47.2° (Epoch: 05 December)

Event Time Altitude Azimuth Distance (km) Brightness Sun altitude
Exits shadow 01:47:31 14° 135° (SE) 3,501 9.2 -35.1°
Maximum altitude 01:48:36 14° 128° (SE) 3,489 9.3 -35.0°
Drops below altitude 10° 01:53:01 10° 100° (E) 3,848 9.8 -34.7°
Sets 01:58:13 0° 79° (ENE) 4,876 10.7 -34.3°
